Home > Weather > Murmansk > Past weeks

Flag for Russia Weather for the Past 2 Weeks in Murmansk, Russia

Now
55 °F

Sunny.


Feels Like: 53 °F
Forecast: 40 / 59 °F
Wind: 10 mph from Southeast

Location: Murmansk Airport

Current Time: May 1, 2016 at 6:40:28 PM

Latest Report: May 1, 2016 at 6:00 PM


Visibility: 10 mi

Pressure: 30.33 "Hg

Humidity: 33%

Dew Point: 27 °F

Location of MurmanskLocation

Historic Weather in Murmansk — Graph

°F

Murmansk Temperature Yesterday

Maximum temperature yesterday: 50 °F (at 4:00 PM)
Minimum temperature yesterday: 34 °F (at 12:00 AM)
Average temperature yesterday: 40 °F

High & Low Weather Summary for the Past Weeks

 TemperatureHumidityPressure
High64 °F (Apr 29, 2:30 PM)100% (Apr 30, 9:30 AM)30.45 "Hg (Apr 30, 9:30 AM)
Low18 °F (Apr 25, 3:30 AM)19% (Apr 29, 4:30 PM)29.42 "Hg (Apr 18, 4:00 AM)
Average38 °F65%29.97 "Hg
* Reported Apr 16 5:00 PM — May 1 5:00 PM, Murmansk, Weather by CustomWeather, © 2016

Note: Actual official high and low records may vary slightly from our data, if they occured in-between our weather recording intervals... More about our weather records

Advertising

Murmansk Weather History for the Previous 24 Hours

Scroll right to see more
 ConditionsComfort  
Time TempWeatherWind HumidityBarometerVisibility
5:00 PM
Sun, May 1
57 °FSunny.8 mph36%30.33 "Hg10 mi
4:30 PM59 °FSunny.8 mph34%30.33 "Hg10 mi
4:00 PM57 °FSunny.8 mph36%30.33 "Hg10 mi
3:30 PM57 °FSunny.8 mph36%30.36 "Hg10 mi
3:00 PM57 °FSunny.8 mph36%30.36 "Hg10 mi
2:30 PM57 °FSunny.6 mph36%30.36 "Hg10 mi
2:00 PM57 °FSunny.6 mph36%30.36 "Hg10 mi
1:30 PM55 °FSunny.6 mph38%30.39 "Hg10 mi
1:00 PM55 °FSunny.6 mph38%30.39 "Hg10 mi
12:30 PM55 °FSunny.6 mph38%30.39 "Hg10 mi
12:00 PM54 °FSunny.8 mph44%30.39 "Hg10 mi
11:30 AM52 °FSunny.8 mph47%30.39 "Hg10 mi
11:00 AM50 °FSunny.8 mph50%30.42 "Hg10 mi
10:30 AM48 °FSunny.6 mph54%30.42 "Hg10 mi
10:00 AM46 °FSunny.6 mph57%30.42 "Hg10 mi
9:30 AM45 °FSunny.6 mph61%30.42 "Hg10 mi
9:00 AM43 °FSunny.6 mph66%30.42 "Hg10 mi
8:00 AM39 °FPassing clouds.6 mph70%30.42 "HgN/A
7:00 AM36 °FScattered clouds.6 mph81%30.45 "HgN/A
6:30 AM32 °FScattered clouds.6 mph93%30.45 "HgN/A
6:00 AM30 °FLow clouds.3 mph93%30.45 "Hg6 mi
5:00 AM30 °FIce fog.3 mph93%30.45 "Hg2 mi
4:30 AM30 °FChilly.3 mph93%30.45 "Hg1 mi
4:00 AM32 °FChilly.3 mph93%30.45 "Hg1 mi
3:30 AM30 °FChilly.3 mph93%30.45 "Hg1 mi
3:00 AM32 °FChilly.3 mph93%30.45 "Hg1 mi
2:30 AM32 °FChilly.6 mph93%30.45 "Hg1 mi
2:00 AM32 °FChilly.3 mph93%30.45 "Hg1 mi
1:30 AM32 °FIce fog.6 mph93%30.45 "Hg2 mi
1:00 AM32 °FIce fog.3 mph93%30.45 "Hg1 mi
12:30 AM32 °FIce fog.3 mph93%30.45 "Hg3 mi
12:00 AM34 °FFog.6 mph87%30.45 "Hg3 mi
11:30 PM
Sat, Apr 30
34 °FPassing clouds.3 mph87%30.45 "Hg4 mi
11:00 PM34 °FPassing clouds.3 mph87%30.45 "HgN/A
10:30 PM34 °FClear.6 mph87%30.45 "Hg10 mi
10:00 PM36 °FClear.6 mph81%30.45 "Hg10 mi
9:30 PM37 °FSunny.6 mph75%30.45 "Hg10 mi
9:00 PM41 °FSunny.6 mph70%30.45 "Hg10 mi
8:30 PM43 °FSunny.8 mph66%30.45 "Hg10 mi
8:00 PM45 °FSunny.6 mph61%30.45 "Hg10 mi
7:30 PM45 °FPassing clouds.3 mph61%30.45 "HgN/A
7:00 PM46 °FSunny.6 mph57%30.42 "Hg10 mi
6:30 PM46 °FSunny.6 mph57%30.42 "Hg10 mi
6:00 PM48 °FSunny.6 mph54%30.45 "Hg10 mi
Weather by CustomWeather, © 2016

See weather overviewHow to use our weather pages